"SCET";"TARGET";"ELECTRON_DENSITY";"ERROR_FLAG";"ELECTRON_DENSITY_ERROR";"FREQ_FCE";"MEASURED_VALUE";"MEASURED_ITEM";"FREQ_PLASMA";"FREQ_UPPER_HYBRID";"FREQ_R_EQUALS_ZERO";"FREQ_L_EQUALS_ZERO";"ORBIT_NUMBER";"SATURN_RADIUS";"SATURN_IAU_LONGITUDE";"SATURN_SLS4_S_LONGITUDE";"SATURN_SLS4_N_LONGITUDE";"SATURN_SLS5_S_LONGITUDE";"SATURN_SLS5_N_LONGITUDE";"SATURN_LOCAL_TIME";"SATURN_KRONOGRAPHIC_LATITUDE";"SATURN_MAGNETIC_LATITUDE";"SATURN_L";"SATURN_L_OFFSET";"SATURN_SOLAR_EQUATORIAL_X";"SATURN_SOLAR_EQUATORIAL_Y";"SATURN_SOLAR_EQUATORIAL_Z";"SATURN_ALTITUDE";"ENCELADUS_ENCOUNTER_NUMBER";"ENCELADUS_RADIUS";"ENCELADUS_COROTATIONAL_X";"ENCELADUS_COROTATIONAL_Y";"ENCELADUS_COROTATIONAL_Z";"ENCELADUS_TRUE_ANOMALY";"ENCELADUS_PERIAPSIS_TIME";"JUPITER_RADIUS";"JUPITER_SYSTEMIII_LONGITUDE";"JUPITER_MAGNETIC_LATITUDE";"JUPITER_MAGNETIC_LOCAL_TIME";"JUPITER_L";"IO_PHASE";"EARTH_RADIUS";"EARTH_MAGNETIC_LATITUDE";"EARTH_LOCAL_TIME";"EARTH_L"
"[UTC]";"[0=Saturn, 1=Enceladus, 2=Jupiter, 3=Earth]";"[cm-3]";"[0=automated, 1=manual]";"[normalized density error]";"[Hz]";"[Hz]";"[0=upper hybrid frequency, 1=plasma frequency cutoff]";"[Hz]";"[Hz]";"[Hz]";"[Hz}";"[0, A, B, C, 3, 4, ... , 292, 293]";"[Rs where 1Rs=60268km]";"[degrees]";"[degrees]";"[degrees]";"[degrees]";"[degrees]";"[hours]";"[degrees]";"[degrees where offset=2293km north]";"[Rs where 1Rs=60268km]";"[Rs where 1Rs=60268km and offset=2293km north]";"[Rs where 1Rs=60268km]";"[Rs where 1Rs=60268km]";"[Rs where 1Rs=60268km]";"[km where ellipsoid a,b=60268km and c=54364km]";"[E0, E1, E2, ... , E21, E22]";"[Renc where 1Renc=252.1km]";"[Renc where 1Renc=252.1km]";"[Renc where 1Renc=252.1km]";"[Renc where 1Renc=252.1km]";"[degrees]";"[UTC]";"[Rj where 1Rj=71492km]";"[degrees]";"[degrees using JRM09 model]";"[hours using JRM09 model]";"[Rj where 1Rj=71492km]";"[degrees]";"[Re where 1Re=6378.1366km]";"[degrees]";"[hours]";"[Re where 1Re=6378.1366km]"
2011-06-19T00:00:06.999Z;0;3.8050e+01;0;     0.093;  2457.532;  55444.484; 0;  55389.992;  55444.484;  56632.387;  54174.855;149;   5.892; 220.639;;;  47.363; 258.763;   4.176;  -0.327;  -0.697;   5.892;   5.886;  -2.707;  -5.233;  -0.034;;;;;;;;;;;;;;;;;;
2011-06-19T00:00:14.998Z;0;3.8900e+01;0;     0.094;  2457.532;  56058.613; 0;  56004.719;  56058.613;  57246.965;  54789.434;149;   5.892; 220.696;;;  47.419; 258.821;   4.178;  -0.328;  -0.697;   5.892;   5.886;  -2.705;  -5.234;  -0.034;;;;;;;;;;;;;;;;;;
2011-06-19T00:00:22.998Z;0;3.8170e+01;0;     0.092;  2457.532;  55536.215; 0;  55481.812;  55536.215;  56724.184;  54266.652;149;   5.892; 220.753;;;  47.476; 258.878;   4.179;  -0.328;  -0.697;   5.892;   5.886;  -2.704;  -5.234;  -0.034;;;;;;;;;;;;;;;;;;
2011-06-19T00:00:30.998Z;0;3.8090e+01;0;     0.090;  2457.532;  55476.492; 0;  55422.031;  55476.492;  56664.418;  54206.887;149;   5.892; 220.810;;;  47.533; 258.935;   4.180;  -0.328;  -0.698;   5.892;   5.886;  -2.702;  -5.235;  -0.034;;;;;;;;;;;;;;;;;;
2011-06-19T00:00:38.998Z;0;3.8390e+01;0;     0.110;  2457.532;  55693.172; 0;  55638.926;  55693.172;  56881.258;  54423.727;149;   5.892; 220.867;;;  47.589; 258.993;   4.181;  -0.328;  -0.698;   5.892;   5.886;  -2.700;  -5.236;  -0.034;;;;;;;;;;;;;;;;;;
2011-06-19T00:00:54.998Z;0;3.7580e+01;0;     0.081;  2457.532;  55108.094; 0;  55053.270;  55108.094;  56295.746;  53838.215;149;   5.892; 220.981;;;  47.702; 259.107;   4.184;  -0.328;  -0.698;   5.892;   5.886;  -2.697;  -5.238;  -0.034;;;;;;;;;;;;;;;;;;
2011-06-19T00:01:02.998Z;0;3.8160e+01;0;     0.100;  2456.888;  55524.223; 0;  55469.840;  55524.223;  56711.883;  54254.996;149;   5.892; 221.038;;;  47.759; 259.165;   4.185;  -0.328;  -0.698;   5.892;   5.886;  -2.695;  -5.239;  -0.034;;;;;;;;;;;;;;;;;;
2011-06-19T00:01:10.998Z;0;3.7680e+01;0;     0.089;  2456.888;  55179.590; 0;  55124.867;  55179.590;  56366.996;  53910.109;149;   5.892; 221.095;;;  47.815; 259.222;   4.186;  -0.328;  -0.698;   5.892;   5.886;  -2.694;  -5.240;  -0.034;;;;;;;;;;;;;;;;;;
2011-06-19T00:01:18.998Z;0;3.9080e+01;0;     0.122;  2456.888;  56192.129; 0;  56138.391;  56192.129;  57380.273;  54923.387;149;   5.892; 221.152;;;  47.872; 259.279;   4.187;  -0.328;  -0.698;   5.892;   5.886;  -2.692;  -5.241;  -0.034;;;;;;;;;;;;;;;;;;
2011-06-19T00:01:26.998Z;0;3.9360e+01;0;     0.099;  2456.888;  56388.926; 0;  56335.375;  56388.926;  57577.211;  55120.324;149;   5.892; 221.209;;;  47.929; 259.337;   4.188;  -0.328;  -0.698;   5.892;   5.886;  -2.690;  -5.241;  -0.034;;;;;;;;;;;;;;;;;;
2011-06-19T00:01:42.998Z;0;3.6530e+01;0;     0.102;  2456.888;  54327.355; 0;  54271.773;  54327.355;  55514.117;  53057.230;149;   5.892; 221.323;;;  48.042; 259.452;   4.191;  -0.328;  -0.698;   5.892;   5.886;  -2.687;  -5.243;  -0.034;;;;;;;;;;;;;;;;;;
2011-06-19T00:01:50.998Z;0;3.7890e+01;0;     0.095;  2456.888;  55328.633; 0;  55274.055;  55328.633;  56516.148;  54059.262;149;   5.892; 221.380;;;  48.098; 259.509;   4.192;  -0.328;  -0.698;   5.892;   5.886;  -2.686;  -5.244;  -0.034;;;;;;;;;;;;;;;;;;
2011-06-19T00:01:58.998Z;0;3.9820e+01;0;     0.107;  2456.888;  56721.961; 0;  56668.727;  56721.961;  57910.484;  55453.594;149;   5.892; 221.436;;;  48.155; 259.567;   4.193;  -0.328;  -0.698;   5.892;   5.886;  -2.684;  -5.245;  -0.034;;;;;;;;;;;;;;;;;;
2011-06-19T00:02:06.998Z;0;3.9570e+01;0;     0.116;  2445.856;  56540.801; 0;  56487.875;  56540.801;  57724.039;  55278.184;149;   5.892; 221.493;;;  48.211; 259.624;   4.194;  -0.328;  -0.698;   5.892;   5.886;  -2.682;  -5.246;  -0.034;;;;;;;;;;;;;;;;;;
2011-06-19T00:02:14.998Z;0;3.9030e+01;0;     0.109;  2445.856;  56157.566; 0;  56104.277;  56157.566;  57340.531;  54894.676;149;   5.892; 221.550;;;  48.268; 259.682;   4.196;  -0.328;  -0.698;   5.892;   5.886;  -2.681;  -5.247;  -0.034;;;;;;;;;;;;;;;;;;
2011-06-19T00:02:30.998Z;0;3.9330e+01;0;     0.111;  2445.856;  56367.223; 0;  56314.133;  56367.223;  57550.340;  55104.480;149;   5.892; 221.664;;;  48.381; 259.797;   4.198;  -0.329;  -0.698;   5.892;   5.886;  -2.677;  -5.248;  -0.034;;;;;;;;;;;;;;;;;;
2011-06-19T00:02:38.998Z;0;3.8360e+01;0;     0.106;  2445.856;  55670.402; 0;  55616.648;  55670.402;  56853.020;  54407.164;149;   5.892; 221.721;;;  48.438; 259.854;   4.199;  -0.329;  -0.698;   5.892;   5.886;  -2.676;  -5.249;  -0.034;;;;;;;;;;;;;;;;;;
2011-06-19T00:02:46.998Z;0;3.7780e+01;0;     0.095;  2445.856;  55253.715; 0;  55199.555;  55253.715;  56436.027;  53990.172;149;   5.892; 221.778;;;  48.494; 259.912;   4.200;  -0.329;  -0.699;   5.892;   5.887;  -2.674;  -5.250;  -0.034;;;;;;;;;;;;;;;;;;
2011-06-19T00:02:54.997Z;0;3.8300e+01;0;     0.103;  2445.856;  55631.039; 0;  55577.246;  55631.039;  56813.629;  54367.770;149;   5.892; 221.835;;;  48.551; 259.970;   4.202;  -0.329;  -0.699;   5.892;   5.887;  -2.672;  -5.251;  -0.034;;;;;;;;;;;;;;;;;;
2011-06-19T00:03:02.997Z;0;3.9220e+01;0;     0.129;  2450.756;  56291.348; 0;  56237.973;  56291.348;  57476.699;  55025.945;149;   5.892; 221.892;;;  48.607; 260.027;   4.203;  -0.329;  -0.699;   5.893;   5.887;  -2.671;  -5.252;  -0.034;;;;;;;;;;;;;;;;;;
2011-06-19T00:03:18.997Z;0;3.9190e+01;0;     0.111;  2450.756;  56266.816; 0;  56213.418;  56266.816;  57452.152;  55001.395;149;   5.892; 222.006;;;  48.721; 260.143;   4.205;  -0.329;  -0.699;   5.893;   5.887;  -2.667;  -5.254;  -0.034;;;;;;;;;;;;;;;;;;
2011-06-19T00:03:26.997Z;0;3.8220e+01;0;     0.104;  2450.756;  55572.652; 0;  55518.586;  55572.652;  56757.484;  54306.730;149;   5.892; 222.063;;;  48.777; 260.200;   4.206;  -0.329;  -0.699;   5.893;   5.887;  -2.666;  -5.255;  -0.034;;;;;;;;;;;;;;;;;;
2011-06-19T00:03:34.997Z;0;3.9260e+01;0;     0.124;  2450.756;  56319.473; 0;  56266.125;  56319.473;  57504.844;  55054.090;149;   5.892; 222.120;;;  48.834; 260.258;   4.208;  -0.329;  -0.699;   5.893;   5.887;  -2.664;  -5.255;  -0.034;;;;;;;;;;;;;;;;;;
2011-06-19T00:03:42.997Z;0;3.7730e+01;0;     0.099;  2450.756;  55212.152; 0;  55157.734;  55212.152;  56396.723;  53945.965;149;   5.892; 222.177;;;  48.890; 260.316;   4.209;  -0.329;  -0.699;   5.893;   5.887;  -2.663;  -5.256;  -0.034;;;;;;;;;;;;;;;;;;
2011-06-19T00:03:50.997Z;0;3.8340e+01;0;     0.113;  2450.756;  55654.098; 0;  55600.113;  55654.098;  56838.992;  54388.234;149;   5.893; 222.234;;;  48.947; 260.374;   4.210;  -0.329;  -0.699;   5.893;   5.887;  -2.661;  -5.257;  -0.034;;;;;;;;;;;;;;;;;;
2011-06-19T00:04:06.997Z;0;3.8550e+01;0;     0.116;  2458.176;  55810.746; 0;  55756.586;  55810.746;  56999.219;  54541.043;149;   5.893; 222.348;;;  49.060; 260.489;   4.213;  -0.329;  -0.699;   5.893;   5.887;  -2.658;  -5.259;  -0.034;;;;;;;;;;;;;;;;;;
2011-06-19T00:04:14.997Z;0;3.8050e+01;0;     0.116;  2458.176;  55448.770; 0;  55394.254;  55448.770;  56636.977;  54178.801;149;   5.893; 222.405;;;  49.117; 260.547;   4.214;  -0.329;  -0.699;   5.893;   5.887;  -2.656;  -5.260;  -0.034;;;;;;;;;;;;;;;;;;
2011-06-19T00:04:22.997Z;0;3.7640e+01;0;     0.096;  2458.176;  55146.453; 0;  55091.641;  55146.453;  56334.434;  53876.258;149;   5.893; 222.462;;;  49.173; 260.605;   4.215;  -0.329;  -0.699;   5.893;   5.887;  -2.654;  -5.261;  -0.034;;;;;;;;;;;;;;;;;;
2011-06-19T00:04:30.997Z;0;3.8670e+01;0;     0.116;  2458.176;  55893.156; 0;  55839.074;  55893.156;  57081.688;  54623.512;149;   5.893; 222.519;;;  49.230; 260.663;   4.216;  -0.329;  -0.699;   5.893;   5.887;  -2.653;  -5.262;  -0.034;;;;;;;;;;;;;;;;;;
2011-06-19T00:04:38.997Z;0;4.0120e+01;0;     0.112;  2458.176;  56934.477; 0;  56881.387;  56934.477;  58123.750;  55665.574;149;   5.893; 222.576;;;  49.286; 260.720;   4.217;  -0.329;  -0.699;   5.893;   5.887;  -2.651;  -5.262;  -0.034;;;;;;;;;;;;;;;;;;
2011-06-19T00:04:54.997Z;0;3.8590e+01;0;     0.107;  2458.176;  55837.086; 0;  55782.949;  55837.086;  57025.578;  54567.402;149;   5.893; 222.690;;;  49.399; 260.836;   4.220;  -0.330;  -0.699;   5.893;   5.887;  -2.648;  -5.264;  -0.034;;;;;;;;;;;;;;;;;;
2011-06-19T00:05:02.997Z;0;3.9680e+01;0;     0.105;  2456.160;  56618.719; 0;  56565.418;  56618.719;  57806.828;  55350.668;149;   5.893; 222.747;;;  49.456; 260.894;   4.221;  -0.330;  -0.699;   5.893;   5.887;  -2.646;  -5.265;  -0.034;;;;;;;;;;;;;;;;;;
2011-06-19T00:05:10.997Z;0;3.9900e+01;0;     0.102;  2456.160;  56776.484; 0;  56723.332;  56776.484;  57964.707;  55508.547;149;   5.893; 222.804;;;  49.513; 260.952;   4.222;  -0.330;  -0.700;   5.893;   5.887;  -2.644;  -5.266;  -0.034;;;;;;;;;;;;;;;;;;
2011-06-19T00:05:18.997Z;0;3.9550e+01;0;     0.113;  2456.160;  56526.164; 0;  56472.777;  56526.164;  57714.207;  55258.047;149;   5.893; 222.861;;;  49.569; 261.010;   4.223;  -0.330;  -0.700;   5.893;   5.887;  -2.643;  -5.267;  -0.034;;;;;;;;;;;;;;;;;;
2011-06-19T00:05:26.997Z;0;4.0200e+01;0;     0.126;  2456.160;  56989.582; 0;  56936.629;  56989.582;  58177.953;  55721.793;149;   5.893; 222.918;;;  49.626; 261.068;   4.225;  -0.330;  -0.700;   5.893;   5.887;  -2.641;  -5.268;  -0.034;;;;;;;;;;;;;;;;;;
2011-06-19T00:05:42.996Z;0;3.9310e+01;0;     0.142;  2456.160;  56355.539; 0;  56301.988;  56355.539;  57543.461;  55087.301;149;   5.893; 223.032;;;  49.739; 261.184;   4.227;  -0.330;  -0.700;   5.893;   5.887;  -2.638;  -5.269;  -0.034;;;;;;;;;;;;;;;;;;
2011-06-19T00:05:50.996Z;0;3.9910e+01;0;     0.109;  2456.160;  56782.473; 0;  56729.328;  56782.473;  57970.699;  55514.539;149;   5.893; 223.089;;;  49.795; 261.242;   4.228;  -0.330;  -0.700;   5.893;   5.887;  -2.636;  -5.270;  -0.034;;;;;;;;;;;;;;;;;;
2011-06-19T00:05:58.996Z;0;4.0490e+01;0;     0.107;  2456.160;  57197.395; 0;  57144.633;  57197.395;  58385.910;  55929.750;149;   5.893; 223.146;;;  49.852; 261.300;   4.229;  -0.330;  -0.700;   5.893;   5.887;  -2.635;  -5.271;  -0.034;;;;;;;;;;;;;;;;;;
2011-06-19T00:06:06.996Z;0;4.0720e+01;0;     0.117;  2443.252;  57356.875; 0;  57304.812;  57356.875;  58539.461;  56096.207;149;   5.893; 223.203;;;  49.909; 261.358;   4.231;  -0.330;  -0.700;   5.893;   5.887;  -2.633;  -5.272;  -0.034;;;;;;;;;;;;;;;;;;
2011-06-19T00:06:14.996Z;0;4.1200e+01;0;     0.149;  2443.252;  57691.520; 0;  57639.762;  57691.520;  58874.332;  56431.078;149;   5.893; 223.260;;;  49.965; 261.416;   4.232;  -0.330;  -0.700;   5.893;   5.888;  -2.631;  -5.273;  -0.034;;;;;;;;;;;;;;;;;;
2011-06-19T00:06:30.996Z;0;4.0700e+01;0;     0.131;  2443.252;  57343.844; 0;  57291.770;  57343.844;  58526.418;  56083.168;149;   5.893; 223.374;;;  50.078; 261.532;   4.234;  -0.330;  -0.700;   5.894;   5.888;  -2.628;  -5.275;  -0.034;;;;;;;;;;;;;;;;;;
2011-06-19T00:06:38.996Z;0;4.0460e+01;0;     0.144;  2443.252;  57175.855; 0;  57123.629;  57175.855;  58358.316;  55915.062;149;   5.893; 223.431;;;  50.135; 261.590;   4.235;  -0.330;  -0.700;   5.894;   5.888;  -2.626;  -5.276;  -0.034;;;;;;;;;;;;;;;;;;
2011-06-19T00:06:46.996Z;0;4.1860e+01;0;     0.136;  2443.252;  58149.184; 0;  58097.832;  58149.184;  59332.301;  56889.047;149;   5.893; 223.488;;;  50.191; 261.648;   4.237;  -0.330;  -0.700;   5.894;   5.888;  -2.625;  -5.276;  -0.034;;;;;;;;;;;;;;;;;;
2011-06-19T00:06:54.996Z;0;4.0660e+01;0;     0.124;  2443.252;  57316.422; 0;  57264.324;  57316.422;  58498.977;  56055.727;149;   5.893; 223.545;;;  50.248; 261.707;   4.238;  -0.330;  -0.700;   5.894;   5.888;  -2.623;  -5.277;  -0.034;;;;;;;;;;;;;;;;;;
2011-06-19T00:07:02.996Z;0;4.0950e+01;0;     0.126;  2440.844;  57518.000; 0;  57466.188;  57518.000;  58699.566;  56258.723;149;   5.893; 223.602;;;  50.305; 261.765;   4.239;  -0.331;  -0.700;   5.894;   5.888;  -2.621;  -5.278;  -0.034;;;;;;;;;;;;;;;;;;
2011-06-19T00:39:42.984Z;0;3.8750e+01;0;     0.122;  2410.156;  55953.629; 0;  55901.695;  55953.629;  57119.762;  54709.605;149;   5.912; 237.575;;;  64.178; 275.779;   4.534;  -0.344;  -0.713;   5.912;   5.906;  -2.214;  -5.482;  -0.035;;;;;;;;;;;;;;;;;;
2011-06-19T00:39:50.983Z;0;3.7150e+01;0;     0.098;  2410.156;  54790.113; 0;  54737.078;  54790.113;  55955.418;  53545.262;149;   5.912; 237.632;;;  64.235; 275.835;   4.535;  -0.344;  -0.713;   5.912;   5.906;  -2.212;  -5.482;  -0.035;;;;;;;;;;;;;;;;;;
2011-06-19T00:40:06.983Z;0;3.7470e+01;0;     0.091;  2393.552;  55023.680; 0;  54971.594;  55023.680;  56181.398;  53787.844;149;   5.912; 237.746;;;  64.348; 275.949;   4.537;  -0.344;  -0.713;   5.913;   5.907;  -2.209;  -5.484;  -0.036;;;;;;;;;;;;;;;;;;
2011-06-19T00:40:14.983Z;0;3.7330e+01;0;     0.099;  2393.552;  54917.879; 0;  54865.695;  54917.879;  56075.520;  53681.969;149;   5.913; 237.803;;;  64.405; 276.006;   4.538;  -0.344;  -0.713;   5.913;   5.907;  -2.207;  -5.485;  -0.036;;;;;;;;;;;;;;;;;;
2011-06-19T00:40:22.983Z;0;3.7720e+01;0;     0.109;  2393.552;  55203.508; 0;  55151.594;  55203.508;  56361.352;  53967.801;149;   5.913; 237.860;;;  64.461; 276.063;   4.540;  -0.344;  -0.713;   5.913;   5.907;  -2.205;  -5.486;  -0.036;;;;;;;;;;;;;;;;;;
2011-06-19T00:40:30.983Z;0;3.9480e+01;0;     0.122;  2393.552;  56477.133; 0;  56426.391;  56477.133;  57635.855;  55242.305;149;   5.913; 237.917;;;  64.518; 276.121;   4.541;  -0.344;  -0.713;   5.913;   5.907;  -2.204;  -5.486;  -0.036;;;;;;;;;;;;;;;;;;
2011-06-19T00:40:38.983Z;0;3.8740e+01;0;     0.117;  2393.552;  55945.566; 0;  55894.340;  55945.566;  57103.926;  54710.375;149;   5.913; 237.975;;;  64.575; 276.178;   4.542;  -0.344;  -0.713;   5.913;   5.907;  -2.202;  -5.487;  -0.036;;;;;;;;;;;;;;;;;;
2011-06-19T00:40:54.983Z;0;3.8770e+01;0;     0.113;  2393.552;  55968.109; 0;  55916.902;  55968.109;  57126.484;  54732.934;149;   5.913; 238.089;;;  64.688; 276.293;   4.544;  -0.344;  -0.713;   5.913;   5.907;  -2.199;  -5.489;  -0.036;;;;;;;;;;;;;;;;;;
2011-06-19T00:41:02.983Z;0;3.7430e+01;0;     0.104;  2402.316;  54992.555; 0;  54940.059;  54992.555;  56154.344;  53752.027;149;   5.913; 238.146;;;  64.745; 276.351;   4.546;  -0.344;  -0.713;   5.913;   5.907;  -2.197;  -5.490;  -0.036;;;;;;;;;;;;;;;;;;
2011-06-19T00:41:10.983Z;0;3.4690e+01;0;     0.104;  2402.316;  52942.852; 0;  52888.320;  52942.852;  54103.117;  51700.801;149;   5.913; 238.203;;;  64.802; 276.408;   4.547;  -0.344;  -0.713;   5.914;   5.908;  -2.195;  -5.490;  -0.036;;;;;;;;;;;;;;;;;;
2011-06-19T00:41:18.983Z;0;3.7560e+01;0;     0.111;  2402.316;  55088.676; 0;  55036.270;  55088.676;  56250.535;  53848.219;149;   5.913; 238.260;;;  64.858; 276.466;   4.548;  -0.344;  -0.713;   5.914;   5.908;  -2.194;  -5.491;  -0.036;;;;;;;;;;;;;;;;;;
2011-06-19T00:41:26.983Z;0;3.8830e+01;0;     0.118;  2402.316;  56006.375; 0;  55954.828;  56006.375;  57168.879;  54766.562;149;   5.914; 238.317;;;  64.915; 276.523;   4.549;  -0.345;  -0.713;   5.914;   5.908;  -2.192;  -5.492;  -0.036;;;;;;;;;;;;;;;;;;
2011-06-19T00:41:42.983Z;0;3.3650e+01;0;     0.088;  2402.316;  52149.992; 0;  52094.629;  52149.992;  53309.633;  50907.320;149;   5.914; 238.431;;;  65.028; 276.638;   4.552;  -0.345;  -0.713;   5.914;   5.908;  -2.189;  -5.494;  -0.036;;;;;;;;;;;;;;;;;;
2011-06-19T00:41:50.983Z;0;3.6920e+01;0;     0.118;  2402.316;  54619.383; 0;  54566.527;  54619.383;  55780.902;  53378.586;149;   5.914; 238.489;;;  65.085; 276.696;   4.553;  -0.345;  -0.713;   5.914;   5.908;  -2.187;  -5.494;  -0.036;;;;;;;;;;;;;;;;;;
2011-06-19T00:41:58.983Z;0;3.7920e+01;0;     0.113;  2402.316;  55350.637; 0;  55298.480;  55350.637;  56512.680;  54110.367;149;   5.914; 238.546;;;  65.142; 276.754;   4.554;  -0.345;  -0.713;   5.914;   5.908;  -2.185;  -5.495;  -0.036;;;;;;;;;;;;;;;;;;
2011-06-19T00:42:06.983Z;0;3.8810e+01;0;     0.133;  2393.188;  55995.086; 0;  55943.922;  55995.086;  57153.312;  54760.121;149;   5.914; 238.603;;;  65.199; 276.811;   4.555;  -0.345;  -0.713;   5.914;   5.908;  -2.184;  -5.496;  -0.036;;;;;;;;;;;;;;;;;;
2011-06-19T00:42:14.983Z;0;3.9130e+01;0;     0.145;  2393.188;  56224.488; 0;  56173.531;  56224.488;  57382.871;  54989.680;149;   5.914; 238.660;;;  65.255; 276.869;   4.556;  -0.345;  -0.713;   5.914;   5.908;  -2.182;  -5.497;  -0.036;;;;;;;;;;;;;;;;;;
2011-06-19T00:42:30.982Z;0;3.6490e+01;0;     0.113;  2393.188;  54297.602; 0;  54244.836;  54297.602;  55454.625;  53061.438;149;   5.914; 238.774;;;  65.369; 276.984;   4.559;  -0.345;  -0.713;   5.915;   5.909;  -2.179;  -5.498;  -0.036;;;;;;;;;;;;;;;;;;
2011-06-19T00:42:38.982Z;0;3.7320e+01;0;     0.112;  2393.188;  54907.684; 0;  54855.504;  54907.684;  56065.148;  53671.961;149;   5.915; 238.831;;;  65.425; 277.042;   4.560;  -0.345;  -0.713;   5.915;   5.909;  -2.177;  -5.499;  -0.036;;;;;;;;;;;;;;;;;;
2011-06-19T00:42:46.982Z;0;3.7700e+01;0;     0.113;  2393.188;  55192.871; 0;  55140.961;  55192.871;  56350.539;  53957.352;149;   5.915; 238.888;;;  65.482; 277.100;   4.561;  -0.345;  -0.713;   5.915;   5.909;  -2.175;  -5.500;  -0.036;;;;;;;;;;;;;;;;;;
2011-06-19T00:42:54.982Z;0;3.7620e+01;0;     0.118;  2393.188;  55129.844; 0;  55077.875;  55129.844;  56287.465;  53894.277;149;   5.915; 238.945;;;  65.539; 277.158;   4.562;  -0.345;  -0.714;   5.915;   5.909;  -2.174;  -5.501;  -0.036;;;;;;;;;;;;;;;;;;
2011-06-19T00:43:02.982Z;0;3.7300e+01;0;     0.121;  2400.720;  54899.133; 0;  54846.617;  54899.133;  56060.109;  53659.391;149;   5.915; 239.003;;;  65.595; 277.215;   4.564;  -0.345;  -0.714;   5.915;   5.909;  -2.172;  -5.501;  -0.036;;;;;;;;;;;;;;;;;;
2011-06-19T00:43:18.982Z;0;3.6510e+01;0;     0.108;  2400.720;  54314.109; 0;  54261.027;  54314.109;  55474.664;  53073.941;149;   5.915; 239.117;;;  65.709; 277.331;   4.566;  -0.345;  -0.714;   5.915;   5.909;  -2.169;  -5.503;  -0.036;;;;;;;;;;;;;;;;;;
2011-06-19T00:43:26.982Z;0;3.7500e+01;0;     0.109;  2400.720;  55043.973; 0;  54991.594;  55043.973;  56205.055;  53804.332;149;   5.915; 239.174;;;  65.766; 277.389;   4.567;  -0.345;  -0.714;   5.915;   5.909;  -2.167;  -5.504;  -0.036;;;;;;;;;;;;;;;;;;
2011-06-19T00:43:34.982Z;0;3.7310e+01;0;     0.112;  2400.720;  54905.805; 0;  54853.293;  54905.805;  56066.785;  53666.066;149;   5.915; 239.231;;;  65.822; 277.447;   4.568;  -0.345;  -0.714;   5.916;   5.910;  -2.165;  -5.505;  -0.036;;;;;;;;;;;;;;;;;;
2011-06-19T00:43:42.982Z;0;3.8730e+01;0;     0.119;  2400.720;  55940.031; 0;  55888.492;  55940.031;  57101.742;  54701.023;149;   5.915; 239.288;;;  65.879; 277.504;   4.570;  -0.345;  -0.714;   5.916;   5.910;  -2.163;  -5.505;  -0.036;;;;;;;;;;;;;;;;;;
2011-06-19T00:43:50.982Z;0;3.9720e+01;0;     0.126;  2400.720;  56649.180; 0;  56598.285;  56649.180;  57811.375;  55410.656;149;   5.916; 239.345;;;  65.936; 277.562;   4.571;  -0.345;  -0.714;   5.916;   5.910;  -2.162;  -5.506;  -0.036;;;;;;;;;;;;;;;;;;
2011-06-19T00:44:06.982Z;0;3.7640e+01;0;     0.120;  2399.600;  55145.488; 0;  55093.254;  55145.488;  56306.117;  53906.520;149;   5.916; 239.459;;;  66.049; 277.678;   4.573;  -0.346;  -0.714;   5.916;   5.910;  -2.158;  -5.508;  -0.036;;;;;;;;;;;;;;;;;;
2011-06-19T00:44:14.982Z;0;3.7230e+01;0;     0.117;  2399.600;  54844.117; 0;  54791.598;  54844.117;  56004.531;  53604.934;149;   5.916; 239.517;;;  66.106; 277.736;   4.574;  -0.346;  -0.714;   5.916;   5.910;  -2.157;  -5.508;  -0.036;;;;;;;;;;;;;;;;;;
2011-06-19T00:44:22.982Z;0;3.6900e+01;0;     0.110;  2399.600;  54599.352; 0;  54546.598;  54599.352;  55759.590;  53359.988;149;   5.916; 239.574;;;  66.163; 277.794;   4.576;  -0.346;  -0.714;   5.916;   5.910;  -2.155;  -5.509;  -0.036;;;;;;;;;;;;;;;;;;
2011-06-19T00:44:30.982Z;0;3.7360e+01;0;     0.123;  2399.600;  54939.906; 0;  54887.477;  54939.906;  56100.391;  53700.789;149;   5.916; 239.631;;;  66.219; 277.852;   4.577;  -0.346;  -0.714;   5.916;   5.910;  -2.153;  -5.510;  -0.036;;;;;;;;;;;;;;;;;;
2011-06-19T00:44:38.982Z;0;3.7810e+01;0;     0.117;  2399.600;  55267.109; 0;  55214.992;  55267.109;  56427.824;  54028.227;149;   5.916; 239.688;;;  66.276; 277.910;   4.578;  -0.346;  -0.714;   5.916;   5.911;  -2.152;  -5.511;  -0.036;;;;;;;;;;;;;;;;;;
2011-06-19T00:44:54.982Z;0;3.7390e+01;0;     0.106;  2399.600;  54966.223; 0;  54913.820;  54966.223;  56126.727;  53727.125;149;   5.917; 239.802;;;  66.389; 278.026;   4.580;  -0.346;  -0.714;   5.917;   5.911;  -2.148;  -5.512;  -0.036;;;;;;;;;;;;;;;;;;
2011-06-19T00:45:02.981Z;0;3.8480e+01;0;     0.122;  2390.808;  55754.695; 0;  55703.410;  55754.695;  56911.641;  54520.832;149;   5.917; 239.859;;;  66.446; 278.084;   4.582;  -0.346;  -0.714;   5.917;   5.911;  -2.147;  -5.513;  -0.036;;;;;;;;;;;;;;;;;;
2011-06-19T00:45:10.981Z;0;3.7630e+01;0;     0.109;  2390.808;  55138.207; 0;  55086.348;  55138.207;  56294.723;  53903.914;149;   5.917; 239.916;;;  66.503; 278.142;   4.583;  -0.346;  -0.714;   5.917;   5.911;  -2.145;  -5.514;  -0.036;;;;;;;;;;;;;;;;;;
2011-06-19T00:45:18.981Z;0;3.8540e+01;0;     0.122;  2390.808;  55799.184; 0;  55747.941;  55799.184;  56956.160;  54565.352;149;   5.917; 239.974;;;  66.560; 278.200;   4.584;  -0.346;  -0.714;   5.917;   5.911;  -2.143;  -5.515;  -0.036;;;;;;;;;;;;;;;;;;
2011-06-19T00:45:26.981Z;0;3.9480e+01;0;     0.126;  2390.808;  56477.711; 0;  56427.086;  56477.711;  57635.148;  55244.340;149;   5.917; 240.031;;;  66.616; 278.258;   4.585;  -0.346;  -0.714;   5.917;   5.911;  -2.142;  -5.516;  -0.036;;;;;;;;;;;;;;;;;;
2011-06-19T00:45:42.981Z;0;3.7940e+01;0;     0.114;  2390.808;  55361.082; 0;  55309.434;  55361.082;  56517.754;  54126.945;149;   5.917; 240.145;;;  66.730; 278.375;   4.588;  -0.346;  -0.714;   5.917;   5.911;  -2.138;  -5.517;  -0.036;;;;;;;;;;;;;;;;;;
2011-06-19T00:45:50.981Z;0;3.7470e+01;0;     0.122;  2390.808;  55024.160; 0;  54972.195;  55024.160;  56180.594;  53789.785;149;   5.917; 240.202;;;  66.786; 278.433;   4.589;  -0.346;  -0.714;   5.918;   5.912;  -2.137;  -5.518;  -0.036;;;;;;;;;;;;;;;;;;
2011-06-19T00:45:58.981Z;0;3.7590e+01;0;     0.117;  2390.808;  55111.938; 0;  55060.055;  55111.938;  56268.434;  53877.625;149;   5.917; 240.259;;;  66.843; 278.491;   4.590;  -0.346;  -0.714;   5.918;   5.912;  -2.135;  -5.519;  -0.036;;;;;;;;;;;;;;;;;;